sat.trackr.live / text

‹ back to catalog

GRUS-3A

NORAD 69885 · 2026-156S

PAYLOAD ACTIVE UNKNOWN

§ Identity

Operator
Country
JPN
Launch date
2026-07-07
Launch site
AFWTR
Launch vehicle
Mass (kg)
RCS (m²)

External: N2YO · Heavens-Above · Gunter

§ Orbital elements

Epoch: 2026-09-19T22:40:22.098144Z

Period
96.54 min
Inclination
97.7433°
Eccentricity
0.0004337
Mean motion
14.91535416 rev/d
Perigee alt
590.1 km
Apogee alt
596.2 km
Semi-major
6,971.3 km
B*
7.6134e-5
RAAN
162.0986°
Arg perigee
250.4152°
Mean anomaly
109.6599°
Rev number
1,112

§ Raw data

GRUS-3A1 69885U 26156S   26262.94470021  .00000707  00000+0  76134-4 0  99992 69885  97.7433 162.0986 0004337 250.4152 109.6599 14.91535416 11122

JSON: /api/v1/satellites/69885 · /tle

For live sub-satellite position, see the globe view (requires WebGL).

§ Visibility from observer

Set your observer location to see the next 7 days of passes ≥ 10°. The values pass through the URL so the page stays shareable.

No JS? Fill the form by hand. The geolocation button needs JavaScript.